Regional Weather Roundup
Issued by NWS Sterling, VA

Home | Current Version | Previous Version | Text Only | Print | Product List | Glossary Off
Versions: 1 2 3 4 5 6 7 8 9 10 11 12 13 14 15 16 17 18 19 20 21 22 23 24 25 26 27 28

000
ASUS41 KLWX 300210
RWRLWX

REGIONAL WEATHER ROUNDUP
NATIONAL WEATHER SERVICE BALTIMORE MD/WASHINGTON DC
1000 PM EDT FRI APR 29 2016

Note: "FAIR" indicates few or no clouds below 12,000 feet
with no significant weather and/or obstructions to visibility.
 TC=TEMPERATURE CELSIUS

 * =Non NWS site. Station does not report precipitation (e.g. rain,
    snow, etc.), thunder, or fog.

DCZ001-MDZ009-015-VAZ040>042-051-053>054-300300-
WASHINGTON METRO

CITY           SKY/WX    TMP DP  RH WIND       PRES   REMARKS
WASHINGTON NAT CLOUDY    53  50  89 NE6       30.11R
DULLES         CLOUDY    53  49  86 E6        30.10R
ANDREWS AFB    CLOUDY    51  50  96 NE6       30.09R
FT BELVOIR     CLOUDY    53  50  90 VRB1      30.10R
QUANTICO       CLOUDY    55  51  86 E8        30.11R
COLLEGE PARK*  CLOUDY    50  48  93 CALM      30.11R
LEESBURG*      CLOUDY    54  52  94 E5        30.11R
MANASSAS*      CLOUDY    54  54 100 NE3       30.10R
GAITHERSBURG*  CLOUDY    50  46  87 CALM      30.14R

$$

MDZ006>007-011-014-300300-
BALTIMORE METRO

CITY           SKY/WX    TMP DP  RH WIND       PRES   REMARKS
BWI AIRPORT    DRIZZLE   51  49  92 E7        30.10R
MD SCIENCE CTR   N/A     52  49  89 MISG      30.12R
MARTIN STATE   CLOUDY    52  52 100 NE3       30.12R
ANNAPOLIS      CLOUDY    51  50  96 MISG      30.11R
FORT MEADE*    CLOUDY    50  48  93 CALM      30.13R

$$

MDZ012-015-019>023-300300-
MARYLAND EASTERN SHORE

CITY           SKY/WX    TMP DP  RH WIND       PRES   REMARKS
OCEAN CITY     CLOUDY    50  48  93 NE8       30.07R
SALISBURY      CLOUDY    50  49  96 NE8       30.07R FOG
CAMBRIDGE*     CLOUDY    50  48  93 NE3       30.10R

$$

MDZ017>025-300300-
SOUTHERN MARYLAND

CITY           SKY/WX    TMP DP  RH WIND       PRES   REMARKS
PATUXENT RIVER CLOUDY    52  49  89 NE8       30.09R
ST INIGOES       N/A    N/A N/A N/A MISG        N/A
LEONARDTOWN*   CLOUDY    52  50  93 NE6       30.11R

$$

MDZ003>005-300300-
NORTH CENTRAL MARYLAND

CITY           SKY/WX    TMP DP  RH WIND       PRES   REMARKS
FREDERICK*     CLOUDY    52  50  93 CALM      30.13R FOG
HAGERSTOWN APT CLOUDY    51  48  89 NW6       30.10R FOG
WESTMINSTER*   CLOUDY    48  46  93 CALM      30.10R FOG

$$

MDZ501>502-300300-
WESTERN MARYLAND

CITY           SKY/WX    TMP DP  RH WIND       PRES   REMARKS
OAKLAND*       CLOUDY    46  45  93 NW7       30.08S
CUMBERLAND*    CLOUDY    52  50  93 S5        30.13R

$$

VAZ025>031-300300-
SHENANDOAH VALLEY

CITY           SKY/WX    TMP DP  RH WIND       PRES   REMARKS
WINCHESTER*    CLOUDY    52  50  93 CALM      30.09R FOG
FRONT ROYAL*   CLOUDY    52  50  93 CALM      30.08R
LURAY*         CLOUDY    54  52  94 N10       30.08R
NEW MARKET*    CLOUDY    53  50  91 NE9       30.06R
STAUNTON*      CLOUDY    58  55  91 N7        30.08R
WAYNESBORO*    CLOUDY    53  50  90 MISG      30.06R

$$

WVZ021-048>050-054>055-300300-
EASTERN WEST VIRGINIA PANHANDLE

CITY           SKY/WX    TMP DP  RH WIND       PRES   REMARKS
MARTINSBURG    CLOUDY    51  48  89 N3        30.10R FOG
PETERSBURG*    CLOUDY    55  51  86 N3        30.09R

$$

VAZ036>039-050-300300-
CENTRAL FOOTHILLS

CITY           SKY/WX    TMP DP  RH WIND       PRES   REMARKS
CHARLOTTESVILL CLOUDY    54  52  93 NE5       30.07R
CULPEPER*      CLOUDY    54  54  99 CALM      30.11R FOG
ORANGE*        CLOUDY    54  54 100 CALM      30.11R FOG
GORDONSVILLE*  CLOUDY    53  53  99 NE5       30.08R FOG
WARRENTON*     CLOUDY    55  48  80 NE3       30.09R

$$

VAZ055>057-300300-
NORTH AND CENTRAL PIEDMONT

CITY           SKY/WX    TMP DP  RH WIND       PRES   REMARKS
FREDERICKSBRG* CLOUDY    55  55 100 NE6       30.09R
STAFFORD*      CLOUDY    54  50  89 NE3       30.13R

$$

NCZ024-NYZ072-PAZ021-071-VAZ022-071-300300-
OTHER REGIONAL OBSERVATIONS

CITY           SKY/WX    TMP DP  RH WIND       PRES   REMARKS
NEW YORK CITY  CLOUDY    49  36  61 E6        30.17R
PHILADELPHIA   CLOUDY    49  40  71 NE7       30.13R
PITTSBURGH     CLOUDY    50  45  83 NW7       30.10R
ROANOKE        FAIR      62  58  86 SE10      30.03R
RICHMOND       CLOUDY    56  53  90 NE7       30.05R
RALEIGH        PTCLDY    66  59  78 SE3       29.99R

$$

ANZ530>537-300300-
MARINE OBSERVATIONS

STATION/POSITION TIME  TEMP    WIND        PRES
                       AIR SEA DIR/SP/G
                 (UTC) (F)     (DEG/KT/KT) (MB)
THOMAS PT LIGHT  0200   51 57   70/  6/  7 1021.0R
BALT KEY BRIDGE  0100   51                 1018.7R
COVE POINT       0100   51                 1019.0R
LEWISETTA        0100   54 60              1017.8R
SOLOMONS ISLAND  0100   53 60                N/A
PINEY POINT      0100           30/  6/  7   N/A

$$





USA.gov is the U.S. government's official web portal to all federal, state and local government web resources and services.